Tracking 19149 objects as of 20-Apr-2018
HD Live streaming from Space Station
objects crossing your sky now

UME 2 (ISS-B)

Track UME 2 (ISS-B) now!
10-day predictions
UME 2 (ISS-B) is classified as:


NORAD ID: 10674
Int'l Code: 1978-018A
Perigee: 982.7 km
Apogee: 1,223.3 km
Inclination: 69.4 °
Period: 107.2 minutes
Semi major axis: 7474 km
RCS: 1.4219 m2 (large)
Launch date: February 16, 1978
Source: Japan (JPN)
Launch site: TANEGASHIMA SPACE CENTER (TNSTA)
aabbcc
Your satellite tracking list
Your tracking list is empty




NASA's NSSDC Master Catalog

Two Line Element Set (TLE):
1 10674U 78018A   18109.52976039 -.00000042 +00000-0 +12126-4 0  9995
2 10674 069.3599 140.9484 0160944 104.1779 004.1898 13.43607169970280
Source of the keplerian elements: AFSPC